TCV7401 GVNP-GOBD

Flight info

Callsign TCV7401
Flight time N/A
Altitude 35000
Route MILPU1N SONVA DCT MOGSA DCT PIVSA PIVSA1D
Aircraft B738/M-SDE2E3FGHIRWXY/LB1

Departure

Time 2026-04-25 15:49
Airport Nelson Mandela International Airport (GVNP)

Arrival

Time N/A
Airport Blaise Diagne International Airport (GOBD)
Time Latitude Longitude Altitude Speed Heading
2026-04-25 15:35 14.94527 -23.48545 338 ft 0 kts 291°
2026-04-25 15:42 14.94528 -23.48548 338 ft 0 kts 292°
2026-04-25 15:42 14.94527 -23.48547 338 ft 2 kts 292°
2026-04-25 15:42 14.94522 -23.48530 334 ft 2 kts 275°
2026-04-25 15:43 14.94523 -23.48513 339 ft 2 kts 247°
2026-04-25 15:43 14.94532 -23.48498 353 ft 3 kts 218°
2026-04-25 15:43 14.94541 -23.48492 351 ft 0 kts 200°
2026-04-25 15:44 14.94536 -23.48494 349 ft 2 kts 200°
2026-04-25 15:44 14.94510 -23.48500 349 ft 6 kts 188°
2026-04-25 15:44 14.94457 -23.48512 338 ft 10 kts 197°
2026-04-25 15:45 14.94376 -23.48523 337 ft 12 kts 162°
2026-04-25 15:45 14.94351 -23.48479 340 ft 15 kts 117°
2026-04-25 15:45 14.94229 -23.48421 335 ft 25 kts 201°
2026-04-25 15:45 14.94174 -23.48448 336 ft 27 kts 209°
2026-04-25 15:46 14.93856 -23.48593 339 ft 35 kts 209°
2026-04-25 15:46 14.93630 -23.48673 334 ft 37 kts 201°
2026-04-25 15:46 14.93400 -23.48766 328 ft 30 kts 202°
2026-04-25 15:46 14.93281 -23.48836 329 ft 12 kts 229°
2026-04-25 15:47 14.93259 -23.48848 325 ft 1 kts 131°
2026-04-25 15:47 14.93262 -23.48836 327 ft 3 kts 70°
2026-04-25 15:47 14.93282 -23.48819 329 ft 6 kts 33°
2026-04-25 15:47 14.93329 -23.48793 330 ft 9 kts 19°
2026-04-25 15:48 14.93457 -23.48732 329 ft 37 kts 27°
2026-04-25 15:48 14.93663 -23.48643 336 ft 59 kts 19°
2026-04-25 15:48 14.94248 -23.48410 338 ft 129 kts 21°
2026-04-25 15:48 14.95249 -23.47969 747 ft 174 kts 25°
2026-04-25 15:49 14.96423 -23.47407 1531 ft 201 kts 25°
2026-04-25 15:49 14.97699 -23.46853 2537 ft 201 kts 19°
2026-04-25 15:49 14.99078 -23.46333 2916 ft 221 kts 19°
2026-04-25 15:49 15.00564 -23.45755 3459 ft 232 kts 20°
2026-04-25 15:50 15.02085 -23.45144 4048 ft 238 kts 20°
2026-04-25 15:50 15.03561 -23.44334 4640 ft 247 kts 40°
2026-04-25 15:50 15.04542 -23.42851 5232 ft 257 kts 68°
2026-04-25 15:50 15.04902 -23.41000 5627 ft 274 kts 89°
2026-04-25 15:51 15.04571 -23.38994 6090 ft 290 kts 107°
2026-04-25 15:51 15.04149 -23.37678 6586 ft 292 kts 110°
2026-04-25 15:51 15.03262 -23.34997 7622 ft 295 kts 109°
2026-04-25 15:51 15.02675 -23.32953 8428 ft 297 kts 107°
2026-04-25 15:52 15.02125 -23.30878 9193 ft 301 kts 108°
2026-04-25 15:52 15.01556 -23.28804 9711 ft 304 kts 108°
2026-04-25 15:52 15.00957 -23.26695 9950 ft 307 kts 109°
2026-04-25 15:52 15.00340 -23.24561 9926 ft 310 kts 109°
2026-04-25 15:53 14.99723 -23.22434 9922 ft 307 kts 109°
2026-04-25 15:53 14.99111 -23.20328 9925 ft 305 kts 109°
2026-04-25 15:53 14.98497 -23.18221 9928 ft 307 kts 109°
2026-04-25 15:53 14.97882 -23.16111 9929 ft 306 kts 109°
2026-04-25 15:54 14.97269 -23.14002 9928 ft 305 kts 109°
2026-04-25 15:54 14.96667 -23.11934 10008 ft 302 kts 109°
2026-04-25 15:54 14.96067 -23.09868 10565 ft 304 kts 109°
2026-04-25 15:54 14.95444 -23.07734 11026 ft 314 kts 109°
2026-04-25 15:55 14.94809 -23.05554 11513 ft 316 kts 108°
2026-04-25 15:55 14.94025 -23.02866 12103 ft 319 kts 108°
2026-04-25 15:55 14.93382 -23.00661 12591 ft 321 kts 108°